| time (UTC) | temp F | wind direction | speed MPH | gust MPH | rain 1hr in | rain 24hr in | rain mn in | humidity % | barometer mb |
| 20260510163904 | 73 | 295 | 4.0 | 8.0 | 0.00 | 0.10 | 0.00 | 50 | 1004.4 |
| 20260510162904 | 73 | 299 | 4.0 | 9.0 | 0.00 | 0.10 | 0.00 | 50 | 1004.4 |
| 20260510161909 | 72 | 292 | 5.0 | 10.0 | 0.00 | 0.10 | 0.00 | 51 | 1004.3 |
| 20260510160904 | 72 | 317 | 2.0 | 5.0 | 0.00 | 0.10 | 0.00 | 55 | 1004.4 |
| 20260510155904 | 72 | 304 | 3.0 | 5.0 | 0.00 | 0.10 | 0.00 | 56 | 1004.5 |
| 20260510154904 | 71 | 301 | 1.0 | 4.0 | 0.00 | 0.10 | 0.00 | 59 | 1004.5 |
| 20260510153904 | 70 | 334 | 1.0 | 4.0 | 0.00 | 0.10 | 0.00 | 61 | 1004.7 |
| 20260510152904 | 67 | 321 | 1.0 | 4.0 | 0.00 | 0.10 | 0.00 | 66 | 1004.7 |
| 20260510151917 | 68 | 283 | 1.0 | 5.0 | 0.00 | 0.10 | 0.00 | 66 | 1004.8 |
| 20260510150903 | 66 | 329 | 1.0 | 4.0 | 0.00 | 0.10 | 0.00 | 69 | 1004.9 |
| 20260510145904 | 66 | 325 | 0.0 | 2.0 | 0.00 | 0.10 | 0.00 | 72 | 1004.9 |
| 20260510144906 | 64 | 0 | 1.0 | 4.0 | 0.00 | 0.10 | 0.00 | 74 | 1004.9 |
| 20260510144444 | 61 | 79 | 1.0 | 2.0 | 0.00 | 0.10 | 0.00 | 84 | 1004.9 |
| 20260510143905 | 62 | 30 | 0.0 | 2.0 | 0.00 | 0.10 | 0.00 | 81 | 1004.9 |
| 20260510142905 | 61 | 79 | 1.0 | 2.0 | 0.00 | 0.10 | 0.00 | 84 | 1004.9 |
| 20260510140910 | 59 | 126 | 1.0 | 2.0 | 0.00 | 0.10 | 0.00 | 92 | 1004.8 |
| 20260510135904 | 58 | 128 | 0.0 | 2.0 | 0.00 | 0.10 | 0.00 | 96 | 1004.9 |
| 20260510134906 | 55 | 54 | 0.0 | 1.0 | 0.00 | 0.10 | 0.00 | 96 | 1004.8 |
| 20260510133904 | 55 | 91 | 0.0 | 1.0 | 0.00 | 0.10 | 0.00 | 96 | 1004.8 |
| 20260510132905 | 54 | 116 | 0.0 | 2.0 | 0.00 | 0.10 | 0.00 | 97 | 1004.7 |
| 20260510131910 | 54 | 336 | 0.0 | 2.0 | 0.00 | 0.10 | 0.00 | 96 | 1004.9 |
| 20260510130905 | 53 | 326 | 0.0 | 3.0 | 0.00 | 0.10 | 0.00 | 96 | 1004.9 |
| 20260510125906 | 53 | 0 | 0.0 | 0.0 | 0.00 | 0.10 | 0.00 | 97 | 1004.9 |
| 20260510124939 | 52 | 151 | 0.0 | 1.0 | 0.00 | 0.10 | 0.00 | 97 | 1004.7 |
| 20260510124904 | 52 | 151 | 0.0 | 1.0 | 0.00 | 0.10 | 0.00 | 97 | 1004.7 |
| 20260510123903 | 52 | 119 | 0.0 | 1.0 | 0.00 | 0.10 | 0.00 | 97 | 1004.5 |
| 20260510122908 | 52 | 86 | 0.0 | 2.0 | 0.00 | 0.10 | 0.00 | 97 | 1004.3 |
| 20260510121907 | 52 | 97 | 0.0 | 1.0 | 0.00 | 0.10 | 0.00 | 96 | 1004.2 |
| 20260510120904 | 52 | 116 | 0.0 | 2.0 | 0.00 | 0.10 | 0.00 | 96 | 1004.3 |
| 20260510115906 | 51 | 5 | 0.0 | 2.0 | 0.00 | 0.10 | 0.00 | 97 | 1004.5 |
| 20260510114905 | 51 | 73 | 0.0 | 3.0 | 0.00 | 0.10 | 0.00 | 97 | 1003.9 |
| 20260510113904 | 51 | 14 | 0.0 | 3.0 | 0.00 | 0.10 | 0.00 | 97 | 1004.0 |
| 20260510112904 | 51 | 51 | 0.0 | 2.0 | 0.00 | 0.10 | 0.00 | 97 | 1004.0 |
| 20260510111910 | 50 | 20 | 1.0 | 3.0 | 0.00 | 0.10 | 0.00 | 97 | 1004.1 |
| 20260510110904 | 50 | 30 | 1.0 | 4.0 | 0.00 | 0.10 | 0.00 | 96 | 1003.8 |
| 20260510105905 | 50 | 60 | 1.0 | 2.0 | 0.00 | 0.10 | 0.00 | 96 | 1003.5 |
| 20260510104904 | 50 | 57 | 1.0 | 3.0 | 0.00 | 0.10 | 0.00 | 96 | 1003.4 |
| 20260510103905 | 50 | 38 | 1.0 | 3.0 | 0.00 | 0.10 | 0.00 | 96 | 1003.3 |
| 20260510102905 | 50 | 28 | 0.0 | 2.0 | 0.00 | 0.10 | 0.00 | 96 | 1003.5 |
| 20260510101904 | 50 | 36 | 0.0 | 1.0 | 0.00 | 0.10 | 0.00 | 96 | 1003.2 |
| 20260510100909 | 50 | 83 | 1.0 | 3.0 | 0.00 | 0.10 | 0.00 | 96 | 1003.2 |
| 20260510095905 | 50 | 45 | 0.0 | 2.0 | 0.00 | 0.10 | 0.00 | 96 | 1003.2 |
| 20260510094903 | 50 | 31 | 0.0 | 2.0 | 0.00 | 0.10 | 0.00 | 96 | 1003.2 |
| 20260510093905 | 50 | 43 | 0.0 | 2.0 | 0.00 | 0.10 | 0.00 | 96 | 1003.0 |
| 20260510092905 | 49 | 31 | 0.0 | 3.0 | 0.00 | 0.10 | 0.00 | 96 | 1003.2 |
| 20260510091923 | 49 | 350 | 1.0 | 4.0 | 0.00 | 0.10 | 0.00 | 96 | 1003.3 |
| 20260510090905 | 49 | 346 | 1.0 | 5.0 | 0.00 | 0.10 | 0.00 | 96 | 1003.2 |
| 20260510085908 | 48 | 353 | 1.0 | 4.0 | 0.00 | 0.10 | 0.00 | 96 | 1003.2 |
| 20260510084905 | 48 | 6 | 1.0 | 6.0 | 0.00 | 0.10 | 0.00 | 96 | 1002.8 |
| 20260510083904 | 48 | 22 | 0.0 | 1.0 | 0.00 | 0.10 | 0.00 | 96 | 1002.5 |
| 20260510082905 | 48 | 0 | 0.0 | 1.0 | 0.00 | 0.10 | 0.00 | 96 | 1002.6 |
| 20260510081905 | 48 | 36 | 0.0 | 1.0 | 0.00 | 0.10 | 0.00 | 96 | 1002.5 |
| 20260510080904 | 48 | 0 | 0.0 | 0.0 | 0.00 | 0.10 | 0.00 | 96 | 1002.5 |
| 20260510075904 | 48 | 38 | 0.0 | 1.0 | 0.00 | 0.10 | 0.00 | 96 | 1002.4 |
| 20260510074904 | 48 | 12 | 0.0 | 3.0 | 0.00 | 0.10 | 0.00 | 96 | 1002.4 |
| 20260510073907 | 48 | 31 | 0.0 | 2.0 | 0.00 | 0.10 | 0.00 | 96 | 1002.5 |
| 20260510072904 | 48 | 42 | 0.0 | 2.0 | 0.00 | 0.10 | 0.00 | 96 | 1002.4 |
| 20260510071926 | 48 | 9 | 0.0 | 3.0 | 0.00 | 0.10 | 0.00 | 96 | 1002.3 |
| 20260510071632 | 47 | 3 | 1.0 | 4.0 | 0.00 | 0.10 | 0.00 | 96 | 1002.0 |
| 20260510070903 | 47 | 3 | 1.0 | 4.0 | 0.00 | 0.10 | 0.00 | 96 | 1002.0 |
| 20260510065904 | 47 | 6 | 0.0 | 2.0 | 0.00 | 0.10 | 0.00 | 96 | 1002.0 |
| 20260510064903 | 48 | 0 | 0.0 | 0.0 | 0.00 | 0.10 | 0.00 | 96 | 1001.9 |
| 20260510064427 | 48 | 22 | 0.0 | 1.0 | 0.00 | 0.10 | 0.00 | 95 | 1001.9 |
| 20260510063903 | 47 | 0 | 0.0 | 0.0 | 0.00 | 0.10 | 0.00 | 95 | 1001.8 |
| 20260510062903 | 48 | 22 | 0.0 | 1.0 | 0.00 | 0.10 | 0.00 | 95 | 1001.9 |
| 20260510061912 | 48 | 23 | 0.0 | 1.0 | 0.00 | 0.10 | 0.00 | 95 | 1001.9 |
| 20260510060905 | 48 | 0 | 0.0 | 1.0 | 0.00 | 0.10 | 0.00 | 95 | 1002.0 |
| 20260510055905 | 48 | 23 | 0.0 | 1.0 | 0.00 | 0.10 | 0.00 | 95 | 1002.2 |
| 20260510054904 | 48 | 70 | 0.0 | 1.0 | 0.00 | 0.10 | 0.00 | 95 | 1002.3 |
| 20260510054547 | 48 | 104 | 0.0 | 1.0 | 0.00 | 0.10 | 0.00 | 95 | 1002.3 |
| 20260510054017 | 49 | 0 | 0.0 | 0.0 | 0.00 | 0.10 | 0.00 | 95 | 1002.5 |
| 20260510053904 | 48 | 104 | 0.0 | 1.0 | 0.00 | 0.10 | 0.00 | 95 | 1002.3 |
| 20260510052903 | 49 | 104 | 0.0 | 1.0 | 0.00 | 0.10 | 0.00 | 95 | 1002.4 |
| 20260510051923 | 49 | 104 | 0.0 | 1.0 | 0.00 | 0.10 | 0.00 | 95 | 1002.4 |
| 20260510050904 | 49 | 0 | 0.0 | 0.0 | 0.00 | 0.10 | 0.00 | 95 | 1002.5 |
| 20260510045907 | 49 | 0 | 0.0 | 1.0 | 0.00 | 0.10 | 0.00 | 95 | 1002.4 |
| 20260510044903 | 49 | 0 | 0.0 | 1.0 | 0.00 | 0.10 | 0.00 | 95 | 1002.6 |
| 20260510043904 | 49 | 0 | 0.0 | 0.0 | 0.00 | 0.10 | 0.00 | 95 | 1002.7 |
| 20260510042904 | 49 | 0 | 0.0 | 0.0 | 0.00 | 0.10 | 0.00 | 95 | 1002.7 |
| 20260510041904 | 50 | 104 | 0.0 | 1.0 | 0.00 | 0.10 | 0.00 | 95 | 1002.8 |
| 20260510040904 | 50 | 104 | 0.0 | 1.0 | 0.00 | 0.10 | 0.00 | 95 | 1002.7 |
| 20260510035907 | 50 | 104 | 0.0 | 1.0 | 0.00 | 0.10 | 0.10 | 94 | 1002.7 |
| 20260510034903 | 51 | 104 | 0.0 | 1.0 | 0.00 | 0.10 | 0.10 | 94 | 1002.6 |
| 20260510033905 | 51 | 104 | 0.0 | 1.0 | 0.00 | 0.10 | 0.10 | 94 | 1002.4 |
| 20260510032904 | 52 | 0 | 0.0 | 0.0 | 0.00 | 0.10 | 0.10 | 94 | 1002.3 |
| 20260510031915 | 52 | 0 | 0.0 | 0.0 | 0.00 | 0.10 | 0.10 | 94 | 1002.3 |
| 20260510030906 | 52 | 0 | 0.0 | 1.0 | 0.00 | 0.10 | 0.10 | 94 | 1002.2 |
| 20260510025906 | 52 | 0 | 0.0 | 1.0 | 0.00 | 0.10 | 0.10 | 94 | 1002.3 |
| 20260510024905 | 51 | 0 | 0.0 | 0.0 | 0.00 | 0.10 | 0.10 | 94 | 1002.2 |
| 20260510023905 | 51 | 0 | 0.0 | 0.0 | 0.00 | 0.10 | 0.10 | 94 | 1002.2 |
| 20260510022906 | 52 | 0 | 0.0 | 1.0 | 0.00 | 0.10 | 0.10 | 94 | 1002.2 |
| 20260510022829 | 53 | 0 | 0.0 | 0.0 | 0.00 | 0.10 | 0.10 | 93 | 1002.1 |
| 20260510020904 | 53 | 0 | 0.0 | 0.0 | 0.00 | 0.10 | 0.10 | 93 | 1002.1 |
| 20260510015904 | 53 | 0 | 0.0 | 1.0 | 0.00 | 0.10 | 0.10 | 93 | 1002.0 |
| 20260510014904 | 53 | 0 | 0.0 | 1.0 | 0.00 | 0.10 | 0.10 | 93 | 1001.9 |
| 20260510013905 | 53 | 0 | 0.0 | 0.0 | 0.00 | 0.10 | 0.10 | 93 | 1002.0 |
| 20260510012904 | 53 | 0 | 0.0 | 1.0 | 0.00 | 0.10 | 0.10 | 93 | 1002.1 |
| 20260510011905 | 53 | 0 | 0.0 | 0.0 | 0.00 | 0.10 | 0.10 | 92 | 1002.0 |
| 20260510010906 | 54 | 0 | 0.0 | 0.0 | 0.00 | 0.10 | 0.10 | 92 | 1001.8 |
| 20260510005909 | 54 | 103 | 0.0 | 1.0 | 0.00 | 0.10 | 0.10 | 92 | 1001.7 |
| 20260510004903 | 54 | 100 | 0.0 | 1.0 | 0.00 | 0.10 | 0.10 | 92 | 1001.8 |
| 20260510003905 | 54 | 0 | 0.0 | 1.0 | 0.00 | 0.10 | 0.10 | 91 | 1001.8 |
| 20260510002905 | 55 | 82 | 0.0 | 1.0 | 0.00 | 0.10 | 0.10 | 91 | 1001.5 |
| 20260510001905 | 55 | 0 | 0.0 | 0.0 | 0.00 | 0.10 | 0.10 | 90 | 1001.7 |
| 20260510000905 | 55 | 0 | 0.0 | 1.0 | 0.00 | 0.10 | 0.10 | 89 | 1001.6 |
| 20260509235905 | 56 | 0 | 0.0 | 0.0 | 0.00 | 0.10 | 0.10 | 88 | 1001.6 |
| 20260509234905 | 56 | 55 | 0.0 | 1.0 | 0.00 | 0.10 | 0.10 | 87 | 1001.7 |
| 20260509233906 | 57 | 55 | 0.0 | 1.0 | 0.00 | 0.10 | 0.10 | 85 | 1001.6 |
| 20260509232905 | 57 | 54 | 0.0 | 1.0 | 0.00 | 0.10 | 0.10 | 85 | 1001.5 |
| 20260509231916 | 57 | 53 | 0.0 | 2.0 | 0.00 | 0.10 | 0.10 | 85 | 1001.5 |
| 20260509225905 | 57 | 134 | 1.0 | 3.0 | 0.00 | 0.10 | 0.10 | 86 | 1001.4 |
| 20260509224906 | 56 | 145 | 1.0 | 5.0 | 0.00 | 0.10 | 0.10 | 87 | 1001.3 |
| 20260509223905 | 56 | 136 | 1.0 | 3.0 | 0.00 | 0.10 | 0.10 | 87 | 1001.5 |
| 20260509222904 | 56 | 136 | 2.0 | 3.0 | 0.00 | 0.10 | 0.10 | 87 | 1001.3 |
| 20260509221905 | 56 | 120 | 1.0 | 3.0 | 0.03 | 0.10 | 0.10 | 87 | 1001.5 |
| 20260509220905 | 56 | 113 | 1.0 | 2.0 | 0.10 | 0.10 | 0.10 | 87 | 1001.6 |
| 20260509215905 | 56 | 141 | 1.0 | 3.0 | 0.10 | 0.10 | 0.10 | 86 | 1001.7 |
| 20260509214907 | 56 | 102 | 1.0 | 3.0 | 0.10 | 0.10 | 0.10 | 85 | 1001.9 |
| 20260509213904 | 56 | 59 | 0.0 | 2.0 | 0.10 | 0.10 | 0.10 | 85 | 1002.2 |
| 20260509212904 | 56 | 62 | 0.0 | 3.0 | 0.09 | 0.09 | 0.09 | 84 | 1002.2 |
| 20260509211905 | 57 | 99 | 1.0 | 3.0 | 0.02 | 0.02 | 0.02 | 80 | 1001.9 |
| 20260509210905 | 58 | 11 | 1.0 | 3.0 | 0.00 | 0.00 | 0.00 | 75 | 1002.2 |
| 20260509205904 | 59 | 24 | 1.0 | 2.0 | 0.00 | 0.00 | 0.00 | 73 | 1001.7 |
| 20260509204905 | 59 | 3 | 2.0 | 4.0 | 0.00 | 0.00 | 0.00 | 73 | 1001.8 |
| 20260509203905 | 59 | 42 | 1.0 | 5.0 | 0.00 | 0.00 | 0.00 | 72 | 1001.7 |
| 20260509202954 | 59 | 36 | 2.0 | 9.0 | 0.00 | 0.00 | 0.00 | 74 | 1001.4 |
| 20260509202906 | 59 | 36 | 2.0 | 9.0 | 0.00 | 0.00 | 0.00 | 74 | 1001.4 |
| 20260509201905 | 59 | 347 | 2.0 | 6.0 | 0.00 | 0.00 | 0.00 | 76 | 1001.5 |
| 20260509200905 | 59 | 5 | 2.0 | 8.0 | 0.00 | 0.00 | 0.00 | 75 | 1001.6 |
| 20260509195905 | 59 | 339 | 2.0 | 9.0 | 0.00 | 0.00 | 0.00 | 74 | 1001.4 |
| 20260509194945 | 58 | 3 | 2.0 | 9.0 | 0.00 | 0.00 | 0.00 | 77 | 1001.6 |
| 20260509194904 | 58 | 3 | 2.0 | 9.0 | 0.00 | 0.00 | 0.00 | 77 | 1001.6 |
| 20260509193907 | 58 | 338 | 3.0 | 8.0 | 0.00 | 0.00 | 0.00 | 75 | 1001.8 |
| 20260509192904 | 59 | 291 | 3.0 | 8.0 | 0.00 | 0.00 | 0.00 | 73 | 1002.2 |
| 20260509191904 | 59 | 353 | 1.0 | 5.0 | 0.00 | 0.00 | 0.00 | 70 | 1002.1 |
| 20260509190904 | 59 | 335 | 2.0 | 5.0 | 0.00 | 0.00 | 0.00 | 71 | 1002.3 |
| 20260509185904 | 60 | 325 | 5.0 | 9.0 | 0.00 | 0.00 | 0.00 | 71 | 1002.4 |
| 20260509184904 | 60 | 303 | 6.0 | 13.0 | 0.00 | 0.00 | 0.00 | 70 | 1002.3 |
| 20260509183904 | 60 | 297 | 4.0 | 8.0 | 0.00 | 0.00 | 0.00 | 67 | 1002.5 |
| 20260509182904 | 61 | 309 | 5.0 | 10.0 | 0.00 | 0.00 | 0.00 | 66 | 1002.5 |
| 20260509181905 | 61 | 312 | 3.0 | 8.0 | 0.00 | 0.00 | 0.00 | 64 | 1002.3 |
| 20260509180906 | 61 | 285 | 4.0 | 6.0 | 0.00 | 0.00 | 0.00 | 65 | 1002.4 |
| 20260509175904 | 61 | 309 | 2.0 | 6.0 | 0.00 | 0.00 | 0.00 | 63 | 1002.1 |
| 20260509174904 | 61 | 331 | 2.0 | 9.0 | 0.00 | 0.00 | 0.00 | 62 | 1002.2 |
| 20260509173905 | 61 | 301 | 5.0 | 10.0 | 0.00 | 0.00 | 0.00 | 60 | 1002.3 |
| 20260509172904 | 62 | 314 | 3.0 | 9.0 | 0.00 | 0.00 | 0.00 | 63 | 1002.3 |
| 20260509172415 | 63 | 305 | 5.0 | 9.0 | 0.00 | 0.00 | 0.00 | 59 | 1002.4 |
| 20260509171904 | 63 | 303 | 4.0 | 9.0 | 0.00 | 0.00 | 0.00 | 62 | 1002.4 |
| 20260509170904 | 63 | 308 | 3.0 | 6.0 | 0.00 | 0.00 | 0.00 | 60 | 1002.4 |
| 20260509165904 | 63 | 305 | 5.0 | 9.0 | 0.00 | 0.00 | 0.00 | 59 | 1002.4 |
| 20260509164904 | 63 | 309 | 7.0 | 10.0 | 0.00 | 0.00 | 0.00 | 60 | 1002.5 |